Location: Home
(42.5358°N, 72.7383°W)
Time: 12:18:02
(UTC-05:00)

Explorer 7 - Pass Details

Date: 04 December 2021
Orbit: 483 x 674 km, 50.3° (Epoch: 19 January)

Event Time Altitude Azimuth Distance (km) Brightness Sun altitude
Exits shadow 05:03:23 30° 208° (SSW) 1,066 8.1 -21.6°
Maximum altitude 05:05:18 55° 144° (SE) 689 7.5 -21.3°
Drops below altitude 10° 05:09:22 10° 66° (ENE) 1,822 10.2 -20.5°
Sets 05:11:34 0° 62° (ENE) 2,686 11.1 -20.1°
